sat.trackr.live / text

‹ back to catalog

STARLINK-5834

NORAD 57071 · 2023-088Z

PAYLOAD ACTIVE UNKNOWN

§ Identity

Operator
Country
US
Launch date
2023-06-22
Launch site
AFWTR
Launch vehicle
Mass (kg)
RCS (m²)

Purposes: comms

External: N2YO · Heavens-Above · Gunter

§ Orbital elements

Epoch: 2026-09-19T19:10:52.825728Z

Period
94.27 min
Inclination
43.0021°
Eccentricity
0.0001034
Mean motion
15.27575786 rev/d
Perigee alt
482.4 km
Apogee alt
483.8 km
Semi-major
6,861.2 km
B*
7.3496e-6
RAAN
80.1799°
Arg perigee
264.7549°
Mean anomaly
95.3185°
Rev number
18,001

§ Raw data

STARLINK-58341 57071U 23088Z   26262.79922252 -.00000060  00000+0  73496-5 0  99972 57071  43.0021  80.1799 0001034 264.7549  95.3185 15.27575786180015

JSON: /api/v1/satellites/57071 · /tle

For live sub-satellite position, see the globe view (requires WebGL).

§ Visibility from observer

Set your observer location to see the next 7 days of passes ≥ 10°. The values pass through the URL so the page stays shareable.

No JS? Fill the form by hand. The geolocation button needs JavaScript.